Flag for U.S.A. Weather past 2 weeks in Montpelier, Vermont, U.S.A.

Now
78 °F

Passing clouds.


Feels Like: 80 °F
Forecast: 62 / 86 °F
Wind: 10 mph from Southwest

Location: Knapp State Airport

Current Time: May 30, 2015 at 7:55:22 PM

Latest Report: May 30, 2015 at 6:51 PM


Visibility: 10 mi

Pressure: 29.97 "Hg

Humidity: 56%

Dew point: 61 °F

Location of MontpelierLocation

Historic Weather in Montpelier — Graph

°F

Montpelier temperature yesterday

Maximum temperature yesterday: 78 °F (at 3:51 PM)
Minimum temperature yesterday: 53 °F (at 4:51 AM)
Average temperature yesterday: 65 °F

Past Weeks' High & Low Weather Summary

 TemperatureHumidityPressure
High83 °F (May 26, 3:51 PM)100% (May 17, 5:01 AM)30.38 "Hg (May 17, 5:01 AM)
Low33 °F (May 23, 3:51 AM)23% (May 24, 5:51 PM)29.73 "Hg (May 19, 5:51 PM)
Average61 °F62%30.09 "Hg
* Reported May 15 6:51 PM — May 30 6:51 PM, Montpelier, Weather by CustomWeather, © 2015

Note: Actual official high and low records may vary slightly from our data, if they occured in-between our weather recording intervals... More about our weather records

Advertising

Montpelier weather history for previous 24 hours

 ConditionsComfort  
Time TempWeatherWind HumidityBarometerVisibility
6:51 PM
Sat, May 30
78 °FPassing clouds.10 mph56%29.97 "Hg10 mi
5:51 PM81 °FSunny.12 mph53%29.97 "Hg10 mi
4:51 PM82 °FPassing clouds.12 mph51%29.98 "Hg10 mi
3:51 PM83 °FSunny.20 mph50%29.98 "Hg10 mi
2:51 PM81 °FSunny.10 mph54%30.01 "Hg10 mi
1:51 PM79 °FScattered clouds.12 mph58%30.03 "Hg10 mi
12:51 PM78 °FPassing clouds.9 mph60%30.07 "Hg10 mi
11:51 AM77 °FPartly sunny.9 mph62%30.09 "Hg10 mi
10:51 AM72 °FPassing clouds.12 mph71%30.10 "Hg10 mi
9:51 AM69 °FPassing clouds.13 mph73%30.11 "Hg10 mi
8:51 AM69 °FSunny.9 mph70%30.12 "Hg10 mi
7:51 AM66 °FPartly sunny.7 mph75%30.13 "Hg10 mi
6:51 AM64 °FSunny.No wind81%30.14 "Hg10 mi
5:51 AM60 °FPassing clouds.No wind86%30.14 "Hg10 mi
4:51 AM62 °FClear.6 mph80%30.14 "Hg10 mi
3:51 AM61 °FClear.8 mph83%30.14 "Hg10 mi
2:51 AM63 °FClear.5 mph78%30.16 "Hg10 mi
1:51 AM63 °FClear.5 mph78%30.17 "Hg10 mi
12:51 AM63 °FClear.No wind78%30.19 "Hg10 mi
11:51 PM
Fri, May 29
65 °FClear.3 mph73%30.20 "Hg10 mi
10:51 PM64 °FClear.6 mph75%30.22 "Hg10 mi
9:51 PM67 °FClear.6 mph66%30.22 "Hg10 mi
8:51 PM66 °FSunny.No wind70%30.22 "Hg10 mi
7:51 PM70 °FSunny.3 mph64%30.22 "Hg10 mi
Weather by CustomWeather, © 2015

See weather overviewHow to use our weather pages